Satellite: INMARSAT 3-F1
Catalog number: 23839
Epoch time:      103114.70941586
Element set:     920 
Inclination:        0.0729 deg
RA of node:        23.0211 deg
Eccentricity:    0.0004619
Arg of perigee:    14.2576 deg
Mean anomaly:     134.3074 deg
Mean motion:    1.00269959 rev/day
Decay rate:    9.9999E-009 rev/day^2
Epoch rev:            2586
Checksum:              309

Satellite: ASTRA 1F
Catalog number: 23842
Epoch time:      103108.00000000
Element set:     567 
Inclination:        0.0122 deg
RA of node:       319.8851 deg
Eccentricity:    0.0002995
Arg of perigee:    65.1991 deg
Mean anomaly:     199.7635 deg
Mean motion:    1.00273184 rev/day
Decay rate:    1.1399E-006 rev/day^2
Epoch rev:            2570
Checksum:              264

Satellite: JAS 2
Catalog number: 24278
Epoch time:      103114.91969687
Element set:     583 
Inclination:       98.5485 deg
RA of node:       257.2965 deg
Eccentricity:    0.0351445
Arg of perigee:    47.1761 deg
Mean anomaly:     315.8349 deg
Mean motion:   13.52879027 rev/day
Decay rate:   -2.2999E-007 rev/day^2
Epoch rev:           33014
Checksum:              362

Satellite: UNAMSAT
Catalog number: 24305
Epoch time:      103114.76188446
Element set:     684 
Inclination:       82.9328 deg
RA of node:       214.5685 deg
Eccentricity:    0.0032190
Arg of perigee:    22.9169 deg
Mean anomaly:     337.3400 deg
Mean motion:   13.73460346 rev/day
Decay rate:    2.0499E-006 rev/day^2
Epoch rev:           33243
Checksum:              302

Satellite: INMARSAT 3-F2
Catalog number: 24307
Epoch time:      103114.94954284
Element set:     113 
Inclination:        0.0993 deg
RA of node:        22.4006 deg
Eccentricity:    0.0005494
Arg of perigee:   346.1395 deg
Mean anomaly:     170.3944 deg
Mean motion:    1.00271717 rev/day
Decay rate:   -1.3799E-006 rev/day^2
Epoch rev:            2427
Checksum:              283

Satellite: HOT BIRD 2
Catalog number: 24665
Epoch time:      103104.95823611
Element set:     349 
Inclination:        0.0337 deg
RA of node:       189.6656 deg
Eccentricity:    0.0009067
Arg of perigee:   269.9979 deg
Mean anomaly:     100.9111 deg
Mean motion:    1.00271489 rev/day
Decay rate:    9.9999E-009 rev/day^2
Epoch rev:            2381
Checksum:              334

Satellite: INMARSAT 3-F3
Catalog number: 24674
Epoch time:      103115.37796850
Element set:     34 
Inclination:        0.1031 deg
RA of node:        60.3969 deg
Eccentricity:    0.0003565
Arg of perigee:   321.6133 deg
Mean anomaly:     145.1288 deg
Mean motion:    1.00273850 rev/day
Decay rate:    2.4999E-007 rev/day^2
Epoch rev:            2324
Checksum:              283

Satellite: GOES 10
Catalog number: 24786
Epoch time:      103114.22426671
Element set:     651 
Inclination:        0.3021 deg
RA of node:       102.1533 deg
Eccentricity:    0.0004316
Arg of perigee:   318.6894 deg
Mean anomaly:      96.7676 deg
Mean motion:    1.00283652 rev/day
Decay rate:    7.0999E-007 rev/day^2
Epoch rev:            2198
Checksum:              292

Satellite: INMARSAT 3-F4
Catalog number: 24819
Epoch time:      103116.34833506
Element set:     913 
Inclination:        0.0808 deg
RA of node:        56.5610 deg
Eccentricity:    0.0002630
Arg of perigee:   325.6449 deg
Mean anomaly:     263.0473 deg
Mean motion:    1.00267161 rev/day
Decay rate:   -2.9800E-006 rev/day^2
Epoch rev:            2167
Checksum:              271

Satellite: FENGYUN 2A
Catalog number: 24834
Epoch time:      103113.75286428
Element set:     5 
Inclination:        2.7308 deg
RA of node:        87.7206 deg
Eccentricity:    0.0000322
Arg of perigee:   297.2364 deg
Mean anomaly:     183.8620 deg
Mean motion:    1.00268081 rev/day
Decay rate:   -2.1099E-006 rev/day^2
Epoch rev:            2148
Checksum:              275

Satellite: HOT BIRD 3
Catalog number: 24931
Epoch time:      103099.84635997
Element set:     430 
Inclination:        0.0632 deg
RA of node:        21.1145 deg
Eccentricity:    0.0006301
Arg of perigee:   353.2368 deg
Mean anomaly:     140.9901 deg
Mean motion:    1.00272510 rev/day
Decay rate:    8.8000E-007 rev/day^2
Epoch rev:            2058
Checksum:              255

Satellite: METEOSAT 7
Catalog number: 24932
Epoch time:      103114.91644098
Element set:     278 
Inclination:        0.3664 deg
RA of node:        78.6982 deg
Eccentricity:    0.0000669
Arg of perigee:   276.9489 deg
Mean anomaly:     186.2835 deg
Mean motion:    1.00271107 rev/day
Decay rate:   -2.2999E-007 rev/day^2
Epoch rev:            2067
Checksum:              335

Satellite: ASTRA 1G
Catalog number: 25071
Epoch time:      103108.00000000
Element set:     399 
Inclination:        0.0122 deg
RA of node:       319.8851 deg
Eccentricity:    0.0002995
Arg of perigee:    65.1991 deg
Mean anomaly:     199.8263 deg
Mean motion:    1.00273184 rev/day
Decay rate:    1.1399E-006 rev/day^2
Epoch rev:            1972
Checksum:              266

Satellite: INMARSAT 3-F5
Catalog number: 25153
Epoch time:      103114.92389057
Element set:     876 
Inclination:        0.4533 deg
RA of node:         5.3914 deg
Eccentricity:    0.0002920
Arg of perigee:     5.0685 deg
Mean anomaly:     199.6525 deg
Mean motion:    1.00273985 rev/day
Decay rate:    1.2499E-006 rev/day^2
Epoch rev:            1915
Checksum:              300

Satellite: HOT BIRD 4
Catalog number: 25237
Epoch time:      103099.84635997
Element set:     334 
Inclination:        0.0316 deg
RA of node:       347.7932 deg
Eccentricity:    0.0006645
Arg of perigee:    69.4486 deg
Mean anomaly:      98.0254 deg
Mean motion:    1.00270260 rev/day
Decay rate:    8.7000E-007 rev/day^2
Epoch rev:            1904
Checksum:              300

Satellite: NOAA 15
Catalog number: 25338
Epoch time:      103116.54824692
Element set:     92 
Inclination:       98.5468 deg
RA of node:       136.8760 deg
Eccentricity:    0.0011432
Arg of perigee:   118.8437 deg
Mean anomaly:     241.3892 deg
Mean motion:   14.24275992 rev/day
Decay rate:    1.6200E-006 rev/day^2
Epoch rev:           25733
Checksum:              320

Satellite: RESURS O1-N4
Catalog number: 25394
Epoch time:      103115.54913009
Element set:     503 
Inclination:       98.6196 deg
RA of node:       192.2218 deg
Eccentricity:    0.0000473
Arg of perigee:   293.8963 deg
Mean anomaly:      66.2167 deg
Mean motion:   14.23902073 rev/day
Decay rate:    1.0799E-006 rev/day^2
Epoch rev:           24892
Checksum:              322

Satellite: TMSAT
Catalog number: 25396
Epoch time:      103115.18485472
Element set:     842 
Inclination:       98.6171 deg
RA of node:       190.9709 deg
Eccentricity:    0.0001569
Arg of perigee:   315.1927 deg
Mean anomaly:      44.9127 deg
Mean motion:   14.23530756 rev/day
Decay rate:   -4.3000E-007 rev/day^2
Epoch rev:           24886
Checksum:              319

Satellite: TECHSAT 1B
Catalog number: 25397
Epoch time:      103114.95103832
Element set:     189 
Inclination:       98.6115 deg
RA of node:       189.5354 deg
Eccentricity:    0.0001015
Arg of perigee:     5.5546 deg
Mean anomaly:     354.5641 deg
Mean motion:   14.22974833 rev/day
Decay rate:    6.7000E-007 rev/day^2
Epoch rev:           24879
Checksum:              312

Satellite: ASTRA 2A
Catalog number: 25462
Epoch time:      103108.00000000
Element set:     541 
Inclination:        0.0385 deg
RA of node:       308.7109 deg
Eccentricity:    0.0004824
Arg of perigee:   280.8620 deg
Mean anomaly:       4.3097 deg
Mean motion:    1.00272094 rev/day
Decay rate:    1.4400E-006 rev/day^2
Epoch rev:            1702
Checksum:              213

Satellite: EUTELSAT W2
Catalog number: 25491
Epoch time:      103114.05383275
Element set:     601 
Inclination:        0.0311 deg
RA of node:        77.2154 deg
Eccentricity:    0.0004590
Arg of perigee:   327.9827 deg
Mean anomaly:     201.8524 deg
Mean motion:    1.00274030 rev/day
Decay rate:    8.8000E-007 rev/day^2
Epoch rev:            1669
Checksum:              368

Satellite: HOT BIRD 5
Catalog number: 25495
Epoch time:      103113.84932269
Element set:     509 
Inclination:        0.0390 deg
RA of node:       123.8441 deg
Eccentricity:    0.0008420
Arg of perigee:   306.5689 deg
Mean anomaly:     112.5130 deg
Mean motion:    1.00272603 rev/day
Decay rate:    1.2799E-006 rev/day^2
Epoch rev:            1666
Checksum:              278

Satellite: SEDSAT 1
Catalog number: 25509
Epoch time:      103116.44010800
Element set:     832 
Inclination:       31.4267 deg
RA of node:       135.5126 deg
Eccentricity:    0.0357388
Arg of perigee:   166.8894 deg
Mean anomaly:     194.1304 deg
Mean motion:   14.27488453 rev/day
Decay rate:    3.0700E-006 rev/day^2
Epoch rev:           23487
Checksum:              300

Satellite: PAN SAT
Catalog number: 25520
Epoch time:      103115.21216760
Element set:     663 
Inclination:       28.4606 deg
RA of node:       146.5093 deg
Eccentricity:    0.0005671
Arg of perigee:   344.4496 deg
Mean anomaly:      15.5936 deg
Mean motion:   15.14217002 rev/day
Decay rate:    2.4380E-005 rev/day^2
Epoch rev:           24754
Checksum:              277

Satellite: ISS (ZARYA)
Catalog number: 25544
Epoch time:      103116.45022209
Element set:     930 
Inclination:       51.6325 deg
RA of node:       280.1659 deg
Eccentricity:    0.0006517
Arg of perigee:    58.8786 deg
Mean anomaly:      38.3302 deg
Mean motion:   15.58565399 rev/day
Decay rate:    2.3758E-004 rev/day^2
Epoch rev:           25293
Checksum:              316

